Кайнар

Казахстан     49°12′01″N   77°23′06″E
темп.,
°C
ветер,
м/с
пор.,
м/с
влажн.,
%
обл.,
%
осадки,
мм/ч
давл.,
гПа
погр.,
м
2 марта, вт
вт200:00−3юз91687100 0.0 1018390
03:00−3юз71387100 0.0 1018368
06:00−3юз41090100 0.1 1018337
09:00−3юз3795100 0.5 1018379
12:00−1юз4797100 2.0 1017448
15:000юз5999100 1.4 1015573
18:00−2зюз6996100 3.1 1015481
21:00−5з5108994 0.8 1017253
3 марта, ср
ср300:00−10зюз488856 0.8 1019140
03:00−14зюз339092 0.0 102233
06:00−17юз338963 0.0 102427
09:00−16юз38890 0.0 1026198
12:00−11зюз47780 0.0 1026411
15:00−11юз47800 0.0 1026415
18:00−14юз45830 0.0 102783
21:00−15юз45760 0.0 102956
4 марта, чт
чт400:00−15юз45710 0.0 102954
03:00−15юз55790 0.0 102869
06:00−14юз55820 0.0 102965
09:00−12ююз69840 0.0 1028157
12:00−9ююз712804 0.0 1027295
15:00−8ююз7128182 0.0 1024316
18:00−11ююз7138163 0.0 1024248
21:00−12ююз9157860 0.0 1022266
5 марта, пт
пт500:00−10ююз8159079 0.0 1020313
03:00−9ююз61192100 0.1 1017271
06:00−7юз3595100 3.0 1015145
09:00−5зсз61394100 3.6 1018575
12:00−6з9148293 3.6 1025787
15:00−6зюз812770 0.0 1030694
18:00−9юз612800 0.0 1032263
21:00−12юз59770 0.0 1033143
6 марта, сб
сб600:00−13юз611750 0.0 1033161
03:00−12юз614743 0.0 1031209
06:00−13ююз713761 0.0 1030192
09:00−12ююз712790 0.0 1030244
12:00−7ююз712760 0.0 1027330
15:00−6юз610771 0.0 1025325
18:00−9ююз44800 0.0 102451
21:00−11юз23620 0.0 102521